NOAA 1 1 04793U 70106A 23340.15208177 -.00000037 00000-0 38965-4 0 9996 2 04793 101.4799 33.7301 0031356 356.6799 63.8710 12.54021850424863 NOAA 2 (ITOS-D) 1 06235U 72082A 23340.97071546 -.00000010 00000-0 23149-3 0 9990 2 06235 102.0065 332.8000 0004075 126.3870 289.6921 12.53171622339306 NOAA 3 1 06920U 73086A 23340.95279944 -.00000017 00000-0 21511-3 0 9994 2 06920 102.2645 330.3686 0006745 21.2001 34.8854 12.40361106267434 NOAA 4 1 07529U 74089A 23340.94754200 -.00000023 00000-0 14892-3 0 9997 2 07529 101.9742 328.5470 0008912 155.5722 260.8733 12.53174484243877 NOAA 5 1 09057U 76077A 23340.86291696 -.00000011 00000-0 26684-3 0 9999 2 09057 102.1810 309.8422 0009415 231.4474 156.2539 12.37792512140238 TIROS N 1 11060U 78096A 23340.54848419 .00000209 00000-0 12123-3 0 9996 2 11060 98.5614 22.9192 0011097 40.4858 319.7142 14.18687582547750 NOAA 6 1 11416U 79057A 23340.95889203 .00000421 00000-0 16591-3 0 9999 2 11416 98.6433 357.3138 0011286 110.0802 250.1598 14.34267598318559 NOAA 7 1 12553U 81059A 23340.57381854 .00000057 00000-0 50455-4 0 9997 2 12553 98.9241 34.4475 0011902 31.5288 328.6597 14.17464404193882 NOAA 8 1 13923U 83022A 23340.49541720 .00000250 00000-0 11625-3 0 9992 2 13923 98.7233 335.2146 0016123 79.8045 280.4954 14.29102922119108 NOAA 9 1 15427U 84123A 23340.90982310 .00000192 00000-0 11988-3 0 9993 2 15427 99.1068 328.7492 0015801 83.7109 296.4249 14.16468444 12687 NOAA 10 1 16969U 86073A 23340.96310644 .00000216 00000-0 10365-3 0 9997 2 16969 98.6228 323.9352 0012157 172.7056 246.8239 14.28480217937560 NOAA 11 1 19531U 88089A 23340.53605838 .00000126 00000-0 85547-4 0 9994 2 19531 98.4913 306.9501 0012247 73.5508 286.7012 14.15460513817049 NOAA 12 1 21263U 91032A 23340.93352964 .00000166 00000-0 87300-4 0 9997 2 21263 98.5448 331.5773 0013174 202.6654 157.3946 14.26207800693333 NOAA 13 1 22739U 93050A 23340.85202371 .00000191 00000-0 12448-3 0 9993 2 22739 98.5795 301.0133 0008424 244.0405 115.9901 14.13097630562942 NOAA 14 1 23455U 94089A 23341.17384085 .00000076 00000-0 61143-4 0 9990 2 23455 98.4270 342.9669 0008819 212.0247 148.0392 14.14328561492955 NOAA 15 1 25338U 98030A 23341.13927079 .00000210 00000-0 10537-3 0 9994 2 25338 98.5900 7.1141 0010652 163.3667 196.7864 14.26449308329910 NOAA 16 1 26536U 00055A 23340.91317548 .00000130 00000-0 91159-4 0 9995 2 26536 98.5609 24.0823 0011509 71.8820 288.3606 14.13500915493279 NOAA 17 1 27453U 02032A 23341.18650953 .00000218 00000-0 11116-3 0 9992 2 27453 98.7387 287.1750 0012281 144.5523 215.6475 14.25434586115462 NOAA 18 1 28654U 05018A 23341.19771333 .00000258 00000-0 16203-3 0 9996 2 28654 98.8954 54.6286 0013418 248.3180 111.6564 14.13073053956005 NOAA 19 1 33591U 09005A 23341.19360749 .00000210 00000-0 13733-3 0 9990 2 33591 99.0775 29.6993 0014736 115.0484 245.2219 14.12881661764372 NPP 1 37849U 11061A 23341.15087362 .00000121 00000-0 77927-4 0 9995 2 37849 98.7221 277.0372 0001583 89.4007 34.4706 14.19562371627474